Wind_Speed
12 12 12 13 13 14 15 16 17 17 17 17 17 16 17 17 17 17 17 17 17 17 17 17 18 18 18 18 18 18 18 18 18 18 18 18 18 18 18 19 19 19 19
12 12 12 13 13 14 15 17 18 18 19 19 19 19 19 19 19 20 20 20 20 20 21 21 21 21 21 21 21 21 21 21 20 21 21 21 21 21 21 22 22 22 22
12 13 13 14 14 15 16 17 19 19 20 21 21 22 22 22 22 22 22 23 23 23 24 24 24 24 24 24 24 24 24 24 24 24 24 24 24 24 24 24 25 25 25
12 13 14 15 15 16 17 19 20 21 22 23 23 23 24 24 24 25 25 26 26 27 27 27 27 27 27 27 27 27 27 27 27 27 27 27 27 27 27 27 27 27 27
12 12 14 15 16 17 18 19 21 22 24 25 25 26 26 26 27 27 28 28 29 30 30 30 30 30 30 30 30 30 30 30 30 30 30 30 30 30 30 30 30 30 30
13 14 15 17 18 19 20 21 23 24 24 25 27 28 28 29 30 30 31 31 31 32 33 33 33 33 33 33 32 32 32 32 32 33 32 33 33 33 34 34 34 33 33
15 16 18 19 20 21 22 22 23 26 27 27 28 29 30 32 33 34 33 33 34 34 34 34 35 35 35 35 35 35 34 34 35 35 35 35 36 37 37 37 37 37 36
18 19 20 22 23 24 24 24 26 27 29 29 30 31 32 32 33 34 35 35 35 35 36 36 37 37 38 38 37 37 37 37 38 38 38 38 39 40 41 41 41 41 40
22 22 22 24 25 26 26 26 27 28 29 30 31 31 32 34 35 36 36 37 37 37 38 38 39 38 39 40 39 39 39 40 41 41 41 41 41 42 43 44 44 45 43
24 25 26 26 28 28 28 29 30 30 31 32 33 34 34 35 36 36 37 36 36 37 37 38 38 39 40 41 41 41 41 42 43 44 44 44 44 45 46 48 48 49 48
27 28 29 30 30 31 32 33 33 33 34 34 34 36 36 37 38 38 38 38 37 38 38 39 39 40 41 43 43 44 44 45 46 46 47 47 47 49 50 51 52 53 53
29 29 30 31 31 32 34 33 32 33 33 34 35 35 35 36 37 38 38 38 39 39 39 40 41 42 44 45 45 46 47 47 48 48 49 49 50 51 53 54 55 56 56
30 31 31 32 32 33 32 33 33 34 34 35 35 35 35 36 37 38 39 40 41 41 41 42 44 45 46 47 48 48 48 49 50 51 52 53 54 55 56 57 58 58 59
31 31 32 32 33 34 34 35 35 35 35 36 36 36 37 38 38 39 39 40 41 42 43 44 45 46 47 47 48 50 51 52 53 54 54 55 57 58 58 59 60 60 60
32 33 34 34 35 35 36 36 36 37 38 38 38 39 39 40 40 41 42 43 44 45 46 47 48 48 49 50 51 52 53 54 55 56 57 58 59 59 60 61 61 62 62
33 34 34 34 35 36 36 37 38 38 38 38 39 41 41 42 43 44 45 45 46 47 48 49 49 50 51 52 53 54 55 56 57 57 58 58 59 60 60 61 62 62 61
34 35 36 36 37 38 38 38 39 40 40 41 42 43 44 44 45 46 47 47 48 49 49 50 51 53 54 55 56 56 57 57 58 58 58 58 59 59 59 59 59 58 58
34 35 36 37 38 39 40 40 40 41 42 43 44 44 45 45 46 47 48 49 50 51 52 53 54 55 56 57 57 57 57 57 57 58 58 58 58 57 56 55 55 55 55
35 37 38 39 40 41 41 41 42 43 43 44 45 45 46 47 48 49 49 50 51 52 53 54 54 55 55 56 56 55 55 56 55 55 55 55 55 54 53 52 51 51 50
37 38 39 40 40 41 41 42 43 43 44 45 46 48 49 49 50 50 51 51 51 51 51 52 52 52 52 52 51 51 51 51 51 51 51 51 50 49 48 47 46 45 45
39 40 41 41 42 42 43 44 45 46 47 47 48 49 50 51 51 51 51 51 51 51 52 51 51 50 49 48 47 47 47 47 47 47 46 45 44 42 42 41 40 40 40
40 41 41 42 43 43 44 45 46 47 47 48 49 49 50 49 49 49 49 50 49 49 49 47 46 44 44 44 43 43 43 43 42 41 39 38 38 37 36 35 35 34 33
40 40 41 41 42 43 44 45 45 46 46 46 46 46 46 46 46 46 46 46 46 45 43 42 40 39 38 38 38 37 37 36 35 35 34 33 31 30 30 29 29 29 28
39 40 41 41 42 42 43 43 43 43 43 44 44 44 44 44 43 43 42 41 40 38 37 36 35 34 33 33 32 32 31 29 29 28 28 27 26 26 26 26 25 24 24
40 40 40 40 41 41 41 41 41 41 41 41 41 40 40 39 38 38 37 35 33 32 31 30 29 29 28 27 27 26 25 24 23 23 23 22 22 22 22 21 21 20 19
38 38 38 39 39 39 38 38 38 37 37 36 35 34 34 33 32 31 30 29 27 27 26 26 25 24 23 23 22 21 21 21 20 20 19 18 17 17 17 17 17 17 16
Wind_Direction
204 207 212 214 217 220 220 220 221 223 225 227 230 235 240 245 248 251 255 260 264 269 274 278 282 285 287 290 293 294 294 293 292 292 292 292 292 292 292 292 293 292 291
217 219 221 221 227 227 225 226 227 229 231 234 237 241 245 250 253 256 258 262 266 269 273 277 279 282 284 286 288 289 289 288 288 288 289 289 288 288 288 289 289 289 288
230 229 230 234 235 232 233 234 234 236 238 240 243 247 250 253 256 259 262 264 267 270 273 275 277 279 281 284 285 285 285 284 284 284 285 286 285 285 285 286 287 287 285
235 234 238 240 238 238 239 240 242 242 243 245 248 251 253 256 259 261 264 266 268 270 272 274 276 278 279 281 283 283 283 282 282 282 283 283 283 283 283 283 284 285 284
242 244 244 245 246 247 247 246 246 249 249 250 251 254 256 257 260 262 264 266 268 270 271 272 274 276 277 278 279 281 281 280 280 280 280 281 280 280 281 281 281 281 281
253 253 253 254 255 256 254 254 253 252 253 254 255 256 258 261 262 263 265 266 268 269 270 272 273 274 275 276 277 278 279 279 279 279 278 279 279 279 280 280 279 279 278
264 265 264 264 265 262 261 262 261 258 257 261 261 261 262 265 265 265 267 270 269 268 270 273 273 274 274 275 276 277 278 278 278 278 277 277 277 277 278 278 278 277 277
263 266 265 264 265 264 262 262 263 262 262 263 264 264 264 268 269 270 272 274 272 273 272 272 272 273 275 275 276 277 278 278 277 277 277 277 277 277 277 277 276 275 275
267 267 269 269 268 269 267 268 269 268 267 268 268 269 270 270 272 273 274 276 274 273 273 272 272 273 274 275 276 276 277 276 276 277 278 277 277 276 276 277 277 276 275
274 272 274 274 274 274 272 273 272 271 271 271 270 272 273 273 273 273 274 274 274 274 273 273 273 272 273 275 276 276 276 275 275 276 277 277 277 277 277 277 276 276 276
274 276 276 277 279 277 276 275 274 274 274 275 274 274 274 275 274 274 274 273 274 274 274 274 274 275 275 276 276 277 277 276 275 275 276 277 277 278 277 277 276 276 276
274 277 278 280 280 281 281 279 276 278 279 280 279 278 277 277 277 276 274 273 273 274 274 274 274 276 277 277 277 277 277 277 276 276 277 277 278 278 277 277 276 276 275
277 278 280 281 281 283 284 283 281 280 282 283 281 280 280 279 279 279 277 276 276 275 275 276 276 276 276 276 276 276 277 277 278 278 278 279 278 278 277 277 277 276 275
279 280 282 282 283 283 283 283 282 282 283 282 281 280 279 279 279 280 278 277 277 277 277 277 277 277 276 276 276 277 278 278 279 279 279 279 279 278 278 278 277 276 275
280 281 281 281 283 284 282 282 282 283 283 281 281 281 281 280 279 279 278 278 278 279 279 279 279 278 277 278 279 279 279 279 279 279 279 279 279 279 278 278 277 276 275
281 282 282 282 282 282 283 283 283 283 283 282 281 280 280 280 280 280 280 280 280 280 279 279 279 278 279 279 280 280 280 280 280 280 280 280 280 280 279 278 278 277 276
282 282 282 282 283 284 284 284 284 284 283 283 282 282 281 282 282 282 282 283 282 282 281 281 280 280 280 280 280 281 281 281 281 281 281 281 281 281 281 280 279 277 275
283 283 283 283 283 284 284 284 284 284 284 283 283 284 284 284 284 284 284 284 283 283 283 283 282 282 282 282 282 281 281 281 281 281 281 281 281 281 281 279 278 277 275
285 285 285 286 285 285 284 284 284 284 285 285 284 285 285 285 285 285 285 284 284 285 285 285 284 284 283 283 283 283 282 282 282 281 281 281 281 281 280 279 278 276 275
288 288 288 287 287 287 286 286 286 286 286 286 285 285 285 286 286 286 286 285 286 286 286 286 286 285 284 283 283 283 284 284 284 284 283 283 283 282 281 280 279 277 276
289 289 289 288 287 287 287 286 286 286 286 285 285 285 286 286 285 286 286 286 287 287 287 287 287 286 285 284 284 284 285 285 286 285 285 285 284 282 282 282 281 279 277
291 290 289 289 288 288 287 287 287 287 287 287 287 287 287 287 287 287 287 288 288 288 288 288 287 286 285 284 284 285 286 286 286 286 286 286 284 283 284 283 282 281 280
291 291 290 290 289 289 289 289 289 288 288 288 289 289 288 289 289 289 289 289 289 289 289 289 288 287 287 287 288 289 289 288 288 287 286 286 286 284 283 284 283 282 280
292 292 292 291 291 291 291 290 290 289 289 289 290 290 290 290 290 290 290 290 290 290 290 290 289 289 290 291 291 292 292 292 292 291 289 288 287 286 285 285 284 283 282
294 293 293 293 293 293 292 291 291 291 291 291 291 291 291 291 291 292 292 291 291 292 292 291 291 292 292 293 293 294 293 294 296 296 294 293 290 289 287 285 285 284 282
295 294 293 293 294 294 294 294 293 294 294 294 294 294 293 293 293 294 293 292 291 292 293 292 292 293 294 295 296 297 298 300 302 301 300 299 296 293 290 288 288 286 282
Height
5843 5845 5847 5848 5850 5851 5853 5855 5856 5857 5858 5859 5860 5861 5862 5863 5863 5864 5864 5864 5864 5863 5863 5862 5862 5861 5860 5859 5858 5857 5856 5855 5854 5852 5851 5850 5848 5847 5845 5844 5842 5841 5839
5841 5842 5844 5845 5847 5848 5850 5851 5852 5853 5854 5855 5856 5857 5858 5858 5858 5858 5858 5858 5858 5858 5858 5857 5856 5855 5854 5853 5852 5851 5849 5848 5847 5846 5845 5843 5842 5841 5839 5838 5836 5835 5833
5838 5839 5841 5842 5843 5845 5846 5847 5848 5849 5850 5851 5852 5852 5852 5853 5853 5853 5853 5852 5852 5852 5851 5850 5849 5848 5847 5846 5845 5844 5842 5841 5840 5839 5837 5836 5835 5833 5832 5831 5829 5828 5826
5834 5836 5837 5838 5839 5840 5841 5842 5843 5844 5845 5845 5846 5846 5846 5846 5846 5846 5846 5845 5845 5844 5843 5843 5842 5841 5839 5838 5837 5836 5834 5833 5832 5831 5829 5828 5827 5825 5824 5822 5821 5819 5818
5831 5832 5834 5834 5835 5836 5836 5837 5837 5838 5839 5839 5839 5839 5839 5839 5838 5838 5837 5837 5836 5835 5834 5834 5833 5832 5830 5829 5828 5827 5826 5824 5823 5822 5821 5819 5818 5816 5815 5813 5812 5810 5809
5828 5829 5830 5830 5830 5830 5830 5830 5831 5831 5831 5832 5832 5831 5831 5831 5830 5829 5828 5828 5827 5826 5825 5824 5823 5822 5821 5820 5819 5817 5816 5815 5813 5812 5811 5810 5808 5807 5805 5804 5802 5801 5800
5824 5825 5825 5824 5824 5824 5824 5824 5824 5823 5823 5823 5823 5823 5823 5822 5821 5820 5819 5818 5817 5817 5816 5814 5813 5812 5811 5810 5808 5807 5806 5804 5803 5801 5800 5799 5797 5796 5794 5792 5791 5790 5789
5819 5819 5818 5818 5818 5817 5817 5817 5816 5814 5814 5814 5813 5814 5813 5812 5811 5810 5809 5808 5807 5806 5805 5804 5802 5801 5800 5799 5797 5797 5795 5793 5791 5789 5789 5787 5786 5784 5781 5780 5778 5777 5776
5811 5811 5810 5810 5809 5808 5808 5808 5806 5805 5805 5805 5804 5803 5803 5802 5801 5800 5799 5798 5797 5796 5794 5792 5791 5790 5788 5787 5786 5785 5783 5781 5778 5777 5776 5774 5773 5771 5768 5766 5765 5763 5763
5804 5803 5802 5802 5801 5799 5799 5798 5797 5796 5795 5795 5794 5794 5793 5791 5790 5789 5787 5786 5785 5784 5782 5781 5779 5778 5776 5774 5773 5772 5771 5769 5766 5764 5762 5761 5759 5757 5754 5752 5750 5748 5747
5796 5796 5795 5794 5792 5791 5790 5788 5786 5786 5785 5784 5783 5782 5782 5780 5778 5777 5776 5774 5773 5772 5770 5769 5767 5765 5764 5761 5759 5758 5756 5755 5753 5750 5748 5746 5744 5742 5739 5736 5734 5732 5731
5788 5787 5786 5785 5783 5782 5780 5777 5776 5776 5775 5773 5772 5771 5770 5769 5767 5766 5764 5762 5761 5759 5758 5756 5754 5752 5750 5748 5746 5744 5742 5740 5738 5736 5734 5732 5729 5726 5723 5720 5717 5715 5713
5780 5778 5777 5776 5775 5773 5770 5768 5766 5765 5764 5763 5761 5760 5758 5757 5755 5754 5752 5750 5748 5747 5745 5743 5741 5739 5736 5734 5732 5729 5727 5725 5722 5720 5718 5715 5712 5709 5705 5702 5699 5696 5694
5771 5770 5768 5767 5765 5763 5761 5759 5757 5755 5753 5752 5750 5749 5747 5746 5744 5742 5740 5738 5736 5734 5732 5729 5727 5724 5721 5719 5716 5714 5711 5708 5706 5703 5701 5697 5694 5690 5686 5683 5680 5677 5675
5762 5760 5758 5757 5755 5753 5751 5749 5747 5745 5743 5742 5740 5738 5736 5734 5732 5730 5727 5725 5723 5720 5717 5715 5712 5709 5706 5703 5701 5698 5695 5691 5688 5685 5681 5678 5675 5671 5667 5663 5659 5656 5654
5752 5750 5748 5746 5744 5742 5740 5738 5736 5734 5732 5729 5727 5725 5723 5721 5718 5716 5713 5711 5708 5706 5703 5700 5697 5693 5690 5687 5684 5681 5677 5673 5669 5666 5662 5659 5655 5651 5648 5644 5639 5636 5634
5743 5741 5738 5736 5734 5732 5729 5727 5725 5722 5719 5717 5715 5712 5709 5706 5704 5701 5698 5695 5692 5689 5686 5683 5680 5676 5673 5670 5666 5663 5659 5655 5651 5647 5643 5640 5636 5632 5628 5624 5620 5617 5615
5732 5730 5727 5725 5723 5720 5718 5715 5712 5709 5707 5704 5701 5698 5695 5692 5689 5685 5683 5679 5676 5672 5669 5665 5662 5658 5654 5651 5647 5643 5640 5636 5632 5628 5624 5620 5616 5612 5609 5605 5602 5598 5596
5721 5719 5716 5713 5710 5707 5705 5702 5699 5696 5693 5690 5687 5683 5680 5676 5673 5670 5666 5663 5660 5656 5651 5647 5643 5639 5635 5631 5628 5624 5621 5617 5613 5609 5605 5601 5597 5593 5590 5587 5584 5581 5578
5709 5706 5704 5701 5697 5694 5691 5688 5685 5682 5678 5675 5672 5668 5664 5661 5657 5653 5650 5646 5642 5638 5634 5630 5626 5621 5617 5614 5610 5607 5603 5599 5595 5591 5587 5584 5580 5576 5573 5570 5567 5565 5563
5697 5694 5691 5687 5684 5681 5677 5674 5670 5667 5664 5660 5656 5652 5649 5645 5641 5637 5633 5629 5625 5621 5617 5613 5609 5605 5601 5597 5594 5590 5587 5583 5579 5575 5571 5568 5564 5561 5558 5556 5554 5551 5550
5684 5681 5677 5674 5670 5667 5663 5659 5655 5652 5648 5644 5640 5636 5632 5628 5624 5620 5616 5613 5608 5604 5601 5597 5593 5589 5585 5582 5579 5575 5571 5568 5564 5561 5557 5554 5551 5549 5546 5544 5541 5540 5538
5671 5667 5664 5660 5656 5652 5648 5644 5640 5637 5632 5628 5624 5620 5616 5612 5608 5604 5601 5597 5593 5589 5585 5582 5578 5575 5571 5568 5565 5561 5558 5555 5551 5548 5545 5543 5540 5538 5536 5533 5532 5530 5528
5658 5654 5650 5646 5642 5638 5634 5630 5626 5622 5618 5614 5610 5606 5602 5598 5594 5590 5586 5583 5579 5576 5572 5569 5566 5563 5560 5557 5553 5550 5547 5544 5541 5538 5535 5533 5531 5529 5527 5525 5523 5522 5520
5645 5641 5637 5633 5629 5625 5621 5617 5612 5608 5604 5600 5596 5592 5589 5585 5581 5577 5574 5570 5568 5565 5561 5558 5555 5552 5550 5547 5544 5541 5539 5536 5533 5530 5528 5525 5523 5521 5519 5518 5516 5515 5514
5632 5628 5624 5620 5616 5612 5608 5604 5600 5596 5592 5588 5584 5581 5577 5574 5570 5567 5564 5561 5558 5555 5552 5549 5546 5544 5542 5539 5537 5534 5532 5530 5527 5524 5522 5519 5517 5515 5513 5512 5511 5509 5508